Year,Month,Day,Hour,Minute,Value (Times are PST for temperature in C)
2020,04,23,00,00,7.90
2020,04,23,00,01,7.90
2020,04,23,00,02,7.90
2020,04,23,00,03,7.80
2020,04,23,00,04,7.90
2020,04,23,00,05,7.90
2020,04,23,00,06,7.90
2020,04,23,00,07,7.90
2020,04,23,00,08,7.90
2020,04,23,00,09,7.90
2020,04,23,00,10,7.90
2020,04,23,00,11,7.90
2020,04,23,00,12,7.90
2020,04,23,00,13,7.80
2020,04,23,00,14,7.80
2020,04,23,00,15,7.80
2020,04,23,00,16,7.80
2020,04,23,00,17,7.80
2020,04,23,00,18,7.70
2020,04,23,00,19,7.70
2020,04,23,00,20,7.70
2020,04,23,00,21,7.60
2020,04,23,00,22,7.60
2020,04,23,00,23,7.60
2020,04,23,00,24,7.60
2020,04,23,00,25,7.60
2020,04,23,00,26,7.60
2020,04,23,00,27,7.60
2020,04,23,00,28,7.60
2020,04,23,00,29,7.60
2020,04,23,00,30,7.60
2020,04,23,00,31,7.60
2020,04,23,00,32,7.60
2020,04,23,00,33,7.60
2020,04,23,00,34,7.60
2020,04,23,00,35,7.60
2020,04,23,00,36,7.50
2020,04,23,00,37,7.50
2020,04,23,00,38,7.50
2020,04,23,00,39,7.50
2020,04,23,00,40,7.50
2020,04,23,00,41,7.50
2020,04,23,00,42,7.50
2020,04,23,00,43,7.50
2020,04,23,00,44,7.50
2020,04,23,00,45,7.50
2020,04,23,00,46,7.60
2020,04,23,00,47,7.50
2020,04,23,00,48,7.60
2020,04,23,00,49,7.60
2020,04,23,00,50,7.60
2020,04,23,00,51,7.60
2020,04,23,00,52,7.60
2020,04,23,00,53,7.70
2020,04,23,00,54,7.70
2020,04,23,00,55,7.80
2020,04,23,00,56,7.80
2020,04,23,00,57,7.90
2020,04,23,00,58,7.90
2020,04,23,00,59,7.90
2020,04,23,01,00,7.90
2020,04,23,01,01,7.90
2020,04,23,01,02,7.90
2020,04,23,01,03,7.80
2020,04,23,01,04,7.80
2020,04,23,01,05,7.80
2020,04,23,01,06,7.80
2020,04,23,01,07,7.70
2020,04,23,01,08,7.70
2020,04,23,01,09,7.70
2020,04,23,01,10,7.70
2020,04,23,01,11,7.60
2020,04,23,01,12,7.60
2020,04,23,01,13,7.60
2020,04,23,01,14,7.50
2020,04,23,01,15,7.50
2020,04,23,01,16,7.50
2020,04,23,01,17,7.50
2020,04,23,01,18,7.40
2020,04,23,01,19,7.40
2020,04,23,01,20,7.50
2020,04,23,01,21,7.50
2020,04,23,01,22,7.50
2020,04,23,01,23,7.50
2020,04,23,01,24,7.40
2020,04,23,01,25,7.40
2020,04,23,01,26,7.40
2020,04,23,01,27,7.40
2020,04,23,01,28,7.40
2020,04,23,01,29,7.40
2020,04,23,01,30,7.30
2020,04,23,01,31,7.30
2020,04,23,01,32,7.30
2020,04,23,01,33,7.20
2020,04,23,01,34,7.20
2020,04,23,01,35,7.20
2020,04,23,01,36,7.20
2020,04,23,01,37,7.20
2020,04,23,01,38,7.20
2020,04,23,01,39,7.20
2020,04,23,01,40,7.20
2020,04,23,01,41,7.20
2020,04,23,01,42,7.20
2020,04,23,01,43,7.10
2020,04,23,01,44,7.10
2020,04,23,01,45,7.10
2020,04,23,01,46,7.20
2020,04,23,01,47,7.10
2020,04,23,01,48,7.10
2020,04,23,01,49,7.10
2020,04,23,01,50,7.10
2020,04,23,01,51,7.10
2020,04,23,01,52,7.10
2020,04,23,01,53,7.10
2020,04,23,01,54,7.10
2020,04,23,01,55,7.10
2020,04,23,01,56,7.10
2020,04,23,01,57,7.00
2020,04,23,01,58,7.00
2020,04,23,01,59,6.90
2020,04,23,02,00,6.90
2020,04,23,02,01,6.80
2020,04,23,02,02,6.80
2020,04,23,02,03,6.80
2020,04,23,02,04,6.70
2020,04,23,02,05,6.70
2020,04,23,02,06,6.70
2020,04,23,02,07,6.70
2020,04,23,02,08,6.70
2020,04,23,02,09,6.70
2020,04,23,02,10,6.70
2020,04,23,02,11,6.70
2020,04,23,02,12,6.70
2020,04,23,02,13,6.70
2020,04,23,02,14,6.70
2020,04,23,02,15,6.70
2020,04,23,02,16,6.70
2020,04,23,02,17,6.60
2020,04,23,02,18,6.60
2020,04,23,02,19,6.60
2020,04,23,02,20,6.60
2020,04,23,02,21,6.60
2020,04,23,02,22,6.60
2020,04,23,02,23,6.60
2020,04,23,02,24,6.60
2020,04,23,02,25,6.60
2020,04,23,02,26,6.60
2020,04,23,02,27,6.60
2020,04,23,02,28,6.60
2020,04,23,02,29,6.60
2020,04,23,02,30,6.60
2020,04,23,02,31,6.60
2020,04,23,02,32,6.60
2020,04,23,02,33,6.60
2020,04,23,02,34,6.70
2020,04,23,02,35,6.70
2020,04,23,02,36,6.70
2020,04,23,02,37,6.70
2020,04,23,02,38,6.70
2020,04,23,02,39,6.70
2020,04,23,02,40,6.70
2020,04,23,02,41,6.70
2020,04,23,02,42,6.70
2020,04,23,02,43,6.70
2020,04,23,02,44,6.70
2020,04,23,02,45,6.70
2020,04,23,02,46,6.60
2020,04,23,02,47,6.60
2020,04,23,02,48,6.60
2020,04,23,02,49,6.60
2020,04,23,02,50,6.60
2020,04,23,02,51,6.60
2020,04,23,02,52,6.60
2020,04,23,02,53,6.70
2020,04,23,02,54,6.70
2020,04,23,02,55,6.70
2020,04,23,02,56,6.70
2020,04,23,02,57,6.70
2020,04,23,02,58,6.70
2020,04,23,02,59,6.70
2020,04,23,03,00,6.70
2020,04,23,03,01,6.70
2020,04,23,03,02,6.60
2020,04,23,03,03,6.60
2020,04,23,03,04,6.60
2020,04,23,03,05,6.60
2020,04,23,03,06,6.70
2020,04,23,03,07,6.60
2020,04,23,03,08,6.60
2020,04,23,03,09,6.60
2020,04,23,03,10,6.60
2020,04,23,03,11,6.60
2020,04,23,03,12,6.60
2020,04,23,03,13,6.70
2020,04,23,03,14,6.70
2020,04,23,03,15,6.70
2020,04,23,03,16,6.70
2020,04,23,03,17,6.70
2020,04,23,03,18,6.70
2020,04,23,03,19,6.70
2020,04,23,03,20,6.70
2020,04,23,03,21,6.70
2020,04,23,03,22,6.70
2020,04,23,03,23,6.70
2020,04,23,03,24,6.70
2020,04,23,03,25,6.70
2020,04,23,03,26,6.70
2020,04,23,03,27,6.70
2020,04,23,03,28,6.70
2020,04,23,03,29,6.70
2020,04,23,03,30,6.70
2020,04,23,03,31,6.70
2020,04,23,03,32,6.70
2020,04,23,03,33,6.70
2020,04,23,03,34,6.70
2020,04,23,03,35,6.70
2020,04,23,03,36,6.70
2020,04,23,03,37,6.80
2020,04,23,03,38,6.80
2020,04,23,03,39,6.80
2020,04,23,03,40,6.80
2020,04,23,03,41,6.80
2020,04,23,03,42,6.80
2020,04,23,03,43,6.80
2020,04,23,03,44,6.80
2020,04,23,03,45,6.80
2020,04,23,03,46,6.80
2020,04,23,03,47,6.80
2020,04,23,03,48,6.80
2020,04,23,03,49,6.80
2020,04,23,03,50,6.80
2020,04,23,03,51,6.80
2020,04,23,03,52,6.80
2020,04,23,03,53,6.80
2020,04,23,03,54,6.80
2020,04,23,03,55,6.80
2020,04,23,03,56,6.90
2020,04,23,03,57,6.90
2020,04,23,03,58,6.90
2020,04,23,03,59,6.90
2020,04,23,04,00,6.90
2020,04,23,04,01,6.90
2020,04,23,04,02,6.90
2020,04,23,04,03,6.90
2020,04,23,04,04,6.90
2020,04,23,04,05,6.90
2020,04,23,04,06,6.90
2020,04,23,04,07,6.90
2020,04,23,04,08,6.90
2020,04,23,04,09,6.90
2020,04,23,04,10,7.00
2020,04,23,04,11,7.00
2020,04,23,04,12,7.00
2020,04,23,04,13,7.00
2020,04,23,04,14,7.00
2020,04,23,04,15,7.10
2020,04,23,04,16,7.10
2020,04,23,04,17,7.10
2020,04,23,04,18,7.10
2020,04,23,04,19,7.10
2020,04,23,04,20,7.10
2020,04,23,04,21,7.10
2020,04,23,04,22,7.10
2020,04,23,04,23,7.10
2020,04,23,04,24,7.10
2020,04,23,04,25,7.10
2020,04,23,04,26,7.10
2020,04,23,04,27,7.10
2020,04,23,04,28,7.10
2020,04,23,04,29,7.10
2020,04,23,04,30,7.10
2020,04,23,04,31,7.10
2020,04,23,04,32,7.10
2020,04,23,04,33,7.10
2020,04,23,04,34,7.10
2020,04,23,04,35,7.10
2020,04,23,04,36,7.10
2020,04,23,04,37,7.10
2020,04,23,04,38,7.10
2020,04,23,04,39,7.10
2020,04,23,04,40,7.10
2020,04,23,04,41,7.10
2020,04,23,04,42,7.10
2020,04,23,04,43,7.10
2020,04,23,04,44,7.10
2020,04,23,04,45,7.10
2020,04,23,04,46,7.10
2020,04,23,04,47,7.00
2020,04,23,04,48,7.00
2020,04,23,04,49,7.00
2020,04,23,04,50,7.00
2020,04,23,04,51,7.00
2020,04,23,04,52,7.00
2020,04,23,04,53,7.00
2020,04,23,04,54,7.00
2020,04,23,04,55,7.00
2020,04,23,04,56,7.00
2020,04,23,04,57,7.00
2020,04,23,04,58,7.00
2020,04,23,04,59,7.00
2020,04,23,05,00,7.00
2020,04,23,05,01,7.00
2020,04,23,05,02,7.00
2020,04,23,05,03,7.00
2020,04,23,05,04,7.00
2020,04,23,05,05,7.00
2020,04,23,05,06,7.00
2020,04,23,05,07,7.00
2020,04,23,05,08,7.10
2020,04,23,05,09,7.10
2020,04,23,05,10,7.10
2020,04,23,05,11,7.10
2020,04,23,05,12,7.10
2020,04,23,05,13,7.10
2020,04,23,05,14,7.10
2020,04,23,05,15,7.10
2020,04,23,05,16,7.00
2020,04,23,05,17,7.00
2020,04,23,05,18,7.00
2020,04,23,05,19,7.00
2020,04,23,05,20,6.90
2020,04,23,05,21,6.90
2020,04,23,05,22,6.90
2020,04,23,05,23,6.90
2020,04,23,05,24,6.90
2020,04,23,05,25,6.90
2020,04,23,05,26,6.90
2020,04,23,05,27,6.90
2020,04,23,05,28,6.90
2020,04,23,05,29,6.90
2020,04,23,05,30,6.90
2020,04,23,05,31,6.90
2020,04,23,05,32,6.90
2020,04,23,05,33,6.90
2020,04,23,05,34,6.90
2020,04,23,05,35,6.90
2020,04,23,05,36,6.80
2020,04,23,05,37,6.80
2020,04,23,05,38,6.80
2020,04,23,05,39,6.90
2020,04,23,05,40,6.90
2020,04,23,05,41,6.90
2020,04,23,05,42,6.90
2020,04,23,05,43,6.90
2020,04,23,05,44,6.90
2020,04,23,05,45,6.90
2020,04,23,05,46,6.90
2020,04,23,05,47,6.90
2020,04,23,05,48,6.90
2020,04,23,05,49,6.90
2020,04,23,05,50,6.90
2020,04,23,05,51,6.90
2020,04,23,05,52,6.90
2020,04,23,05,53,6.90
2020,04,23,05,54,6.90
2020,04,23,05,55,6.90
2020,04,23,05,56,6.90
2020,04,23,05,57,6.90
2020,04,23,05,58,6.90
2020,04,23,05,59,6.90
2020,04,23,06,00,6.90
2020,04,23,06,01,6.90
2020,04,23,06,02,6.90
2020,04,23,06,03,6.90
2020,04,23,06,04,6.90
2020,04,23,06,05,6.90
2020,04,23,06,06,6.90
2020,04,23,06,07,6.90
2020,04,23,06,08,6.90
2020,04,23,06,09,6.90
2020,04,23,06,10,6.90
2020,04,23,06,11,6.90
2020,04,23,06,12,6.90
2020,04,23,06,13,6.90
2020,04,23,06,14,6.90
2020,04,23,06,15,7.00
2020,04,23,06,16,7.00
2020,04,23,06,17,7.10
2020,04,23,06,18,7.10
2020,04,23,06,19,7.20
2020,04,23,06,20,7.20
2020,04,23,06,21,7.30
2020,04,23,06,22,7.30
2020,04,23,06,23,7.30
2020,04,23,06,24,7.30
2020,04,23,06,25,7.30
2020,04,23,06,26,7.30
2020,04,23,06,27,7.20
2020,04,23,06,28,7.20
2020,04,23,06,29,7.30
2020,04,23,06,30,7.30
2020,04,23,06,31,7.30
2020,04,23,06,32,7.30
2020,04,23,06,33,7.30
2020,04,23,06,34,7.40
2020,04,23,06,35,7.40
2020,04,23,06,36,7.40
2020,04,23,06,37,7.50
2020,04,23,06,38,7.50
2020,04,23,06,39,7.50
2020,04,23,06,40,7.50
2020,04,23,06,41,7.60
2020,04,23,06,42,7.60
2020,04,23,06,43,7.60
2020,04,23,06,44,7.60
2020,04,23,06,45,7.60
2020,04,23,06,46,7.60
2020,04,23,06,47,7.60
2020,04,23,06,48,7.60
2020,04,23,06,49,7.60
2020,04,23,06,50,7.60
2020,04,23,06,51,7.60
2020,04,23,06,52,7.60
2020,04,23,06,53,7.70
2020,04,23,06,54,7.70
2020,04,23,06,55,7.70
2020,04,23,06,56,7.70
2020,04,23,06,57,7.70
2020,04,23,06,58,7.70
2020,04,23,06,59,7.70
2020,04,23,07,00,7.80
2020,04,23,07,01,7.80
2020,04,23,07,02,7.80
2020,04,23,07,03,7.90
2020,04,23,07,04,7.90
2020,04,23,07,05,7.90
2020,04,23,07,06,8.00
2020,04,23,07,07,8.00
2020,04,23,07,08,8.00
2020,04,23,07,09,8.10
2020,04,23,07,10,8.10
2020,04,23,07,11,8.10
2020,04,23,07,12,8.20
2020,04,23,07,13,8.20
2020,04,23,07,14,8.20
2020,04,23,07,15,8.30
2020,04,23,07,16,8.30
2020,04,23,07,17,8.30
2020,04,23,07,18,8.30
2020,04,23,07,19,8.30
2020,04,23,07,20,8.30
2020,04,23,07,21,8.30
2020,04,23,07,22,8.40
2020,04,23,07,23,8.40
2020,04,23,07,24,8.40
2020,04,23,07,25,8.40
2020,04,23,07,26,8.40
2020,04,23,07,27,8.40
2020,04,23,07,28,8.40
2020,04,23,07,29,8.40
2020,04,23,07,30,8.50
2020,04,23,07,31,8.50
2020,04,23,07,32,8.50
2020,04,23,07,33,8.60
2020,04,23,07,34,8.60
2020,04,23,07,35,8.70
2020,04,23,07,36,8.70
2020,04,23,07,37,8.70
2020,04,23,07,38,8.70
2020,04,23,07,39,8.70
2020,04,23,07,40,8.80
2020,04,23,07,41,8.80
2020,04,23,07,42,8.80
2020,04,23,07,43,8.80
2020,04,23,07,44,8.80
2020,04,23,07,45,8.90
2020,04,23,07,46,8.90
2020,04,23,07,47,9.00
2020,04,23,07,48,9.00
2020,04,23,07,49,9.10
2020,04,23,07,50,9.10
2020,04,23,07,51,9.10
2020,04,23,07,52,9.20
2020,04,23,07,53,9.20
2020,04,23,07,54,9.20
2020,04,23,07,55,9.20
2020,04,23,07,56,9.30
2020,04,23,07,57,9.30
2020,04,23,07,58,9.30
2020,04,23,07,59,9.40
2020,04,23,08,00,9.40
2020,04,23,08,01,9.40
2020,04,23,08,02,9.50
2020,04,23,08,03,9.50
2020,04,23,08,04,9.60
2020,04,23,08,05,9.60
2020,04,23,08,06,9.70
2020,04,23,08,07,9.70
2020,04,23,08,08,9.70
2020,04,23,08,09,9.80
2020,04,23,08,10,9.80
2020,04,23,08,11,9.80
2020,04,23,08,12,9.80
2020,04,23,08,13,9.90
2020,04,23,08,14,9.90
2020,04,23,08,15,9.90
2020,04,23,08,16,10.00
2020,04,23,08,17,10.00
2020,04,23,08,18,10.00
2020,04,23,08,19,10.10
2020,04,23,08,20,10.10
2020,04,23,08,21,10.10
2020,04,23,08,22,10.20
2020,04,23,08,23,10.20
2020,04,23,08,24,10.20
2020,04,23,08,25,10.30
2020,04,23,08,26,10.30
2020,04,23,08,27,10.30
2020,04,23,08,28,10.30
2020,04,23,08,29,10.40
2020,04,23,08,30,10.40
2020,04,23,08,31,10.40
2020,04,23,08,32,10.40
2020,04,23,08,33,10.50
2020,04,23,08,34,10.50
2020,04,23,08,35,10.50
2020,04,23,08,36,10.60
2020,04,23,08,37,10.60
2020,04,23,08,38,10.60
2020,04,23,08,39,10.60
2020,04,23,08,40,10.70
2020,04,23,08,41,10.70
2020,04,23,08,42,10.70
2020,04,23,08,43,10.80
2020,04,23,08,44,10.80
2020,04,23,08,45,10.80
2020,04,23,08,46,10.80
2020,04,23,08,47,10.80
2020,04,23,08,48,10.90
2020,04,23,08,49,11.00
2020,04,23,08,50,11.00
2020,04,23,08,51,11.10
2020,04,23,08,52,11.10
2020,04,23,08,53,11.20
2020,04,23,08,54,11.20
2020,04,23,08,55,11.20
2020,04,23,08,56,11.20
2020,04,23,08,57,11.30
2020,04,23,08,58,11.30
2020,04,23,08,59,11.30
2020,04,23,09,00,11.40
2020,04,23,09,01,11.40
2020,04,23,09,02,11.40
2020,04,23,09,03,11.50
2020,04,23,09,04,11.50
2020,04,23,09,05,11.60
2020,04,23,09,06,11.60
2020,04,23,09,07,11.70
2020,04,23,09,08,11.70
2020,04,23,09,09,11.70
2020,04,23,09,10,11.80
2020,04,23,09,11,11.80
2020,04,23,09,12,11.90
2020,04,23,09,13,11.90
2020,04,23,09,14,12.00
2020,04,23,09,15,12.00
2020,04,23,09,16,12.10
2020,04,23,09,17,12.10
2020,04,23,09,18,12.20
2020,04,23,09,19,12.20
2020,04,23,09,20,12.30
2020,04,23,09,21,12.30
2020,04,23,09,22,12.40
2020,04,23,09,23,12.40
2020,04,23,09,24,12.50
2020,04,23,09,25,12.50
2020,04,23,09,26,12.60
2020,04,23,09,27,12.60
2020,04,23,09,28,12.70
2020,04,23,09,29,12.80
2020,04,23,09,30,12.80
2020,04,23,09,31,12.90
2020,04,23,09,32,12.90
2020,04,23,09,33,13.00
2020,04,23,09,34,13.00
2020,04,23,09,35,13.10
2020,04,23,09,36,13.10
2020,04,23,09,37,13.10
2020,04,23,09,38,13.10
2020,04,23,09,39,13.20
2020,04,23,09,40,13.20
2020,04,23,09,41,13.20
2020,04,23,09,42,13.20
2020,04,23,09,43,13.20
2020,04,23,09,44,13.30
2020,04,23,09,45,13.30
2020,04,23,09,46,13.30
2020,04,23,09,47,13.40
2020,04,23,09,48,13.50
2020,04,23,09,49,13.50
2020,04,23,09,50,13.60
2020,04,23,09,51,13.70
2020,04,23,09,52,13.70
2020,04,23,09,53,13.70
2020,04,23,09,54,13.70
2020,04,23,09,55,13.70
2020,04,23,09,56,13.70
2020,04,23,09,57,13.70
2020,04,23,09,58,13.60
2020,04,23,09,59,13.60
2020,04,23,10,00,13.60
2020,04,23,10,01,13.70
2020,04,23,10,02,13.70
2020,04,23,10,03,13.70
2020,04,23,10,04,13.80
2020,04,23,10,05,13.90
2020,04,23,10,06,14.00
2020,04,23,10,07,14.00
2020,04,23,10,08,14.10
2020,04,23,10,09,14.10
2020,04,23,10,10,14.10
2020,04,23,10,11,14.10
2020,04,23,10,12,14.00
2020,04,23,10,13,14.00
2020,04,23,10,14,14.00
2020,04,23,10,15,14.10
2020,04,23,10,16,14.10
2020,04,23,10,17,14.20
2020,04,23,10,18,14.20
2020,04,23,10,19,14.30
2020,04,23,10,20,14.40
2020,04,23,10,21,14.50
2020,04,23,10,22,14.50
2020,04,23,10,23,14.60
2020,04,23,10,24,14.70
2020,04,23,10,25,14.70
2020,04,23,10,26,14.80
2020,04,23,10,27,14.80
2020,04,23,10,28,14.80
2020,04,23,10,29,14.90
2020,04,23,10,30,15.00
2020,04,23,10,31,15.10
2020,04,23,10,32,15.20
2020,04,23,10,33,15.20
2020,04,23,10,34,15.20
2020,04,23,10,35,15.20
2020,04,23,10,36,15.20
2020,04,23,10,37,15.30
2020,04,23,10,38,15.30
2020,04,23,10,39,15.30
2020,04,23,10,40,15.30
2020,04,23,10,41,15.40
2020,04,23,10,42,15.40
2020,04,23,10,43,15.50
2020,04,23,10,44,15.50
2020,04,23,10,45,15.50
2020,04,23,10,46,15.50
2020,04,23,10,47,15.60
2020,04,23,10,48,15.60
2020,04,23,10,49,15.60
2020,04,23,10,50,15.60
2020,04,23,10,51,15.70
2020,04,23,10,52,15.70
2020,04,23,10,53,15.80
2020,04,23,10,54,15.80
2020,04,23,10,55,15.80
2020,04,23,10,56,15.80
2020,04,23,10,57,15.80
2020,04,23,10,58,15.70
2020,04,23,10,59,15.70
2020,04,23,11,00,15.70
2020,04,23,11,01,15.70
2020,04,23,11,02,15.60
2020,04,23,11,03,15.60
2020,04,23,11,04,15.60
2020,04,23,11,05,15.60
2020,04,23,11,06,15.70
2020,04,23,11,07,15.80
2020,04,23,11,08,15.80
2020,04,23,11,09,15.90
2020,04,23,11,10,15.90
2020,04,23,11,11,16.00
2020,04,23,11,12,16.10
2020,04,23,11,13,16.10
2020,04,23,11,14,16.10
2020,04,23,11,15,16.00
2020,04,23,11,16,16.00
2020,04,23,11,17,15.90
2020,04,23,11,18,15.90
2020,04,23,11,19,15.90
2020,04,23,11,20,15.90
2020,04,23,11,21,15.90
2020,04,23,11,22,15.80
2020,04,23,11,23,15.80
2020,04,23,11,24,15.80
2020,04,23,11,25,15.80
2020,04,23,11,26,15.80
2020,04,23,11,27,15.80
2020,04,23,11,28,15.80
2020,04,23,11,29,15.90
2020,04,23,11,30,15.90
2020,04,23,11,31,15.90
2020,04,23,11,32,15.90
2020,04,23,11,33,15.90
2020,04,23,11,34,15.90
2020,04,23,11,35,16.00
2020,04,23,11,36,16.00
2020,04,23,11,37,16.10
2020,04,23,11,38,16.20
2020,04,23,11,39,16.20
2020,04,23,11,40,16.10
2020,04,23,11,41,15.90
2020,04,23,11,42,15.80
2020,04,23,11,43,15.80
2020,04,23,11,44,15.80
2020,04,23,11,45,15.70
2020,04,23,11,46,15.80
2020,04,23,11,47,15.70
2020,04,23,11,48,15.70
2020,04,23,11,49,15.70
2020,04,23,11,50,15.70
2020,04,23,11,51,15.70
2020,04,23,11,52,15.70
2020,04,23,11,53,15.70
2020,04,23,11,54,15.70
2020,04,23,11,55,15.80
2020,04,23,11,56,15.90
2020,04,23,11,57,16.00
2020,04,23,11,58,16.10
2020,04,23,11,59,16.10
2020,04,23,12,00,16.20
2020,04,23,12,01,16.20
2020,04,23,12,02,16.20
2020,04,23,12,03,16.20
2020,04,23,12,04,16.20
2020,04,23,12,05,16.30
2020,04,23,12,06,16.30
2020,04,23,12,07,16.30
2020,04,23,12,08,16.30
2020,04,23,12,09,16.20
2020,04,23,12,10,16.20
2020,04,23,12,11,16.20
2020,04,23,12,12,16.20
2020,04,23,12,13,16.10
2020,04,23,12,14,16.10
2020,04,23,12,15,16.10
2020,04,23,12,16,16.10
2020,04,23,12,17,16.10
2020,04,23,12,18,16.10
2020,04,23,12,19,16.00
2020,04,23,12,20,15.90
2020,04,23,12,21,15.90
2020,04,23,12,22,15.90
2020,04,23,12,23,15.90
2020,04,23,12,24,15.90
2020,04,23,12,25,15.90
2020,04,23,12,26,15.90
2020,04,23,12,27,15.90
2020,04,23,12,28,15.90
2020,04,23,12,29,15.90
2020,04,23,12,30,15.90
2020,04,23,12,31,15.90
2020,04,23,12,32,15.90
2020,04,23,12,33,15.90
2020,04,23,12,34,15.90
2020,04,23,12,35,16.00
2020,04,23,12,36,16.00
2020,04,23,12,37,16.00
2020,04,23,12,38,16.10
2020,04,23,12,39,16.10
2020,04,23,12,40,16.10
2020,04,23,12,41,16.20
2020,04,23,12,42,16.30
2020,04,23,12,43,16.30
2020,04,23,12,44,16.30
2020,04,23,12,45,16.30
2020,04,23,12,46,16.30
2020,04,23,12,47,16.30
2020,04,23,12,48,16.30
2020,04,23,12,49,16.30
2020,04,23,12,50,16.30
2020,04,23,12,51,16.30
2020,04,23,12,52,16.20
2020,04,23,12,53,16.20
2020,04,23,12,54,16.20
2020,04,23,12,55,16.30
2020,04,23,12,56,16.40
2020,04,23,12,57,16.40
2020,04,23,12,58,16.40
2020,04,23,12,59,16.40
2020,04,23,13,00,16.30
2020,04,23,13,01,16.30
2020,04,23,13,02,16.30
2020,04,23,13,03,16.30
2020,04,23,13,04,16.40
2020,04,23,13,05,16.40
2020,04,23,13,06,16.30
2020,04,23,13,07,16.30
2020,04,23,13,08,16.20
2020,04,23,13,09,16.20
2020,04,23,13,10,16.20
2020,04,23,13,11,16.20
2020,04,23,13,12,16.20
2020,04,23,13,13,16.20
2020,04,23,13,14,16.30
2020,04,23,13,15,16.30
2020,04,23,13,16,16.30
2020,04,23,13,17,16.30
2020,04,23,13,18,16.30
2020,04,23,13,19,16.30
2020,04,23,13,20,16.20
2020,04,23,13,21,16.00
2020,04,23,13,22,15.80
2020,04,23,13,23,15.80
2020,04,23,13,24,15.70
2020,04,23,13,25,15.70
2020,04,23,13,26,15.60
2020,04,23,13,27,15.50
2020,04,23,13,28,15.30
2020,04,23,13,29,15.30
2020,04,23,13,30,15.30
2020,04,23,13,31,15.30
2020,04,23,13,32,15.40
2020,04,23,13,33,15.40
2020,04,23,13,34,15.50
2020,04,23,13,35,15.50
2020,04,23,13,36,15.60
2020,04,23,13,37,15.70
2020,04,23,13,38,15.80
2020,04,23,13,39,15.90
2020,04,23,13,40,16.00
2020,04,23,13,41,16.10
2020,04,23,13,42,16.20
2020,04,23,13,43,16.30
2020,04,23,13,44,16.40
2020,04,23,13,45,16.50
2020,04,23,13,46,16.60
2020,04,23,13,47,16.70
2020,04,23,13,48,16.80
2020,04,23,13,49,16.80
2020,04,23,13,50,16.90
2020,04,23,13,51,17.00
2020,04,23,13,52,17.00
2020,04,23,13,53,17.10
2020,04,23,13,54,17.20
2020,04,23,13,55,17.30
2020,04,23,13,56,17.30
2020,04,23,13,57,17.30
2020,04,23,13,58,17.40
2020,04,23,13,59,17.30
2020,04,23,14,00,17.20
2020,04,23,14,01,17.10
2020,04,23,14,02,16.90
2020,04,23,14,03,16.80
2020,04,23,14,04,16.60
2020,04,23,14,05,16.40
2020,04,23,14,06,16.30
2020,04,23,14,07,16.10
2020,04,23,14,08,16.10
2020,04,23,14,09,16.00
2020,04,23,14,10,16.00
2020,04,23,14,11,15.90
2020,04,23,14,12,15.90
2020,04,23,14,13,15.90
2020,04,23,14,14,15.80
2020,04,23,14,15,15.80
2020,04,23,14,16,15.70
2020,04,23,14,17,15.70
2020,04,23,14,18,15.60
2020,04,23,14,19,15.60
2020,04,23,14,20,15.60
2020,04,23,14,21,15.60
2020,04,23,14,22,15.50
2020,04,23,14,23,15.50
2020,04,23,14,24,15.40
2020,04,23,14,25,15.40
2020,04,23,14,26,15.30
2020,04,23,14,27,15.30
2020,04,23,14,28,15.30
2020,04,23,14,29,15.30
2020,04,23,14,30,15.30
2020,04,23,14,31,15.20
2020,04,23,14,32,15.20
2020,04,23,14,33,15.10
2020,04,23,14,34,15.10
2020,04,23,14,35,15.10
2020,04,23,14,36,15.10
2020,04,23,14,37,15.10
2020,04,23,14,38,15.10
2020,04,23,14,39,15.00
2020,04,23,14,40,15.00
2020,04,23,14,41,15.10
2020,04,23,14,42,15.20
2020,04,23,14,43,15.30
2020,04,23,14,44,15.30
2020,04,23,14,45,15.30
2020,04,23,14,46,15.40
2020,04,23,14,47,15.40
2020,04,23,14,48,15.50
2020,04,23,14,49,15.50
2020,04,23,14,50,15.50
2020,04,23,14,51,15.60
2020,04,23,14,52,15.70
2020,04,23,14,53,15.80
2020,04,23,14,54,15.80
2020,04,23,14,55,15.90
2020,04,23,14,56,16.00
2020,04,23,14,57,16.00
2020,04,23,14,58,16.10
2020,04,23,14,59,16.20
2020,04,23,15,00,16.20
2020,04,23,15,01,16.30
2020,04,23,15,02,16.30
2020,04,23,15,03,16.30
2020,04,23,15,04,16.40
2020,04,23,15,05,16.40
2020,04,23,15,06,16.40
2020,04,23,15,07,16.40
2020,04,23,15,08,16.30
2020,04,23,15,09,16.20
2020,04,23,15,10,16.00
2020,04,23,15,11,15.90
2020,04,23,15,12,15.80
2020,04,23,15,13,15.70
2020,04,23,15,14,15.70
2020,04,23,15,15,15.70
2020,04,23,15,16,15.70
2020,04,23,15,17,15.70
2020,04,23,15,18,15.70
2020,04,23,15,19,15.70
2020,04,23,15,20,15.80
2020,04,23,15,21,15.80
2020,04,23,15,22,15.80
2020,04,23,15,23,15.80
2020,04,23,15,24,15.90
2020,04,23,15,25,15.90
2020,04,23,15,26,16.00
2020,04,23,15,27,16.00
2020,04,23,15,28,16.20
2020,04,23,15,29,16.40
2020,04,23,15,30,16.50
2020,04,23,15,31,16.60
2020,04,23,15,32,16.70
2020,04,23,15,33,16.80
2020,04,23,15,34,16.80
2020,04,23,15,35,16.70
2020,04,23,15,36,16.70
2020,04,23,15,37,16.70
2020,04,23,15,38,16.70
2020,04,23,15,39,16.70
2020,04,23,15,40,16.70
2020,04,23,15,41,16.80
2020,04,23,15,42,16.90
2020,04,23,15,43,16.90
2020,04,23,15,44,16.90
2020,04,23,15,45,16.90
2020,04,23,15,46,16.90
2020,04,23,15,47,17.00
2020,04,23,15,48,17.00
2020,04,23,15,49,17.10
2020,04,23,15,50,17.10
2020,04,23,15,51,17.10
2020,04,23,15,52,17.10
2020,04,23,15,53,17.10
2020,04,23,15,54,17.10
2020,04,23,15,55,17.10
2020,04,23,15,56,17.10
2020,04,23,15,57,17.10
2020,04,23,15,58,17.10
2020,04,23,15,59,17.10
2020,04,23,16,00,17.20
2020,04,23,16,01,17.20
2020,04,23,16,02,17.20
2020,04,23,16,03,17.30
2020,04,23,16,04,17.30
2020,04,23,16,05,17.40
2020,04,23,16,06,17.50
2020,04,23,16,07,17.50
2020,04,23,16,08,17.50
2020,04,23,16,09,17.40
2020,04,23,16,10,17.40
2020,04,23,16,11,17.40
2020,04,23,16,12,17.40
2020,04,23,16,13,17.40
2020,04,23,16,14,17.30
2020,04,23,16,15,17.30
2020,04,23,16,16,17.30
2020,04,23,16,17,17.30
2020,04,23,16,18,17.30
2020,04,23,16,19,17.30
2020,04,23,16,20,17.40
2020,04,23,16,21,17.40
2020,04,23,16,22,17.50
2020,04,23,16,23,17.60
2020,04,23,16,24,17.70
2020,04,23,16,25,17.70
2020,04,23,16,26,17.70
2020,04,23,16,27,17.80
2020,04,23,16,28,17.80
2020,04,23,16,29,17.80
2020,04,23,16,30,17.80
2020,04,23,16,31,17.80
2020,04,23,16,32,17.80
2020,04,23,16,33,17.80
2020,04,23,16,34,17.80
2020,04,23,16,35,17.80
2020,04,23,16,36,17.80
2020,04,23,16,37,17.70
2020,04,23,16,38,17.70
2020,04,23,16,39,17.60
2020,04,23,16,40,17.60
2020,04,23,16,41,17.60
2020,04,23,16,42,17.60
2020,04,23,16,43,17.60
2020,04,23,16,44,17.60
2020,04,23,16,45,17.50
2020,04,23,16,46,17.40
2020,04,23,16,47,17.40
2020,04,23,16,48,17.50
2020,04,23,16,49,17.50
2020,04,23,16,50,17.60
2020,04,23,16,51,17.70
2020,04,23,16,52,17.70
2020,04,23,16,53,17.80
2020,04,23,16,54,17.80
2020,04,23,16,55,17.90
2020,04,23,16,56,17.90
2020,04,23,16,57,17.90
2020,04,23,16,58,17.80
2020,04,23,16,59,17.70
2020,04,23,17,00,17.70
2020,04,23,17,01,17.60
2020,04,23,17,02,17.60
2020,04,23,17,03,17.60
2020,04,23,17,04,17.60
2020,04,23,17,05,17.70
2020,04,23,17,06,17.70
2020,04,23,17,07,17.70
2020,04,23,17,08,17.70
2020,04,23,17,09,17.70
2020,04,23,17,10,17.70
2020,04,23,17,11,17.70
2020,04,23,17,12,17.70
2020,04,23,17,13,17.70
2020,04,23,17,14,17.70
2020,04,23,17,15,17.70
2020,04,23,17,16,17.70
2020,04,23,17,17,17.70
2020,04,23,17,18,17.70
2020,04,23,17,19,17.70
2020,04,23,17,20,17.70
2020,04,23,17,21,17.70
2020,04,23,17,22,17.70
2020,04,23,17,23,17.70
2020,04,23,17,24,17.70
2020,04,23,17,25,17.70
2020,04,23,17,26,17.70
2020,04,23,17,27,17.70
2020,04,23,17,28,17.70
2020,04,23,17,29,17.70
2020,04,23,17,30,17.80
2020,04,23,17,31,17.80
2020,04,23,17,32,17.90
2020,04,23,17,33,17.90
2020,04,23,17,34,17.90
2020,04,23,17,35,18.00
2020,04,23,17,36,18.00
2020,04,23,17,37,17.90
2020,04,23,17,38,17.80
2020,04,23,17,39,17.80
2020,04,23,17,40,17.70
2020,04,23,17,41,17.70